EWS-G1 (GOES 13) (29155 NORAD) Tracking and Keplerian Element Data

This shows tracking and keplerian element data for the satellite.

Feedback or suggestion? Click here.




ElementValue
Catalog29155
NameEWS-G1 (GOES 13)
Epoch Orbit6845
Epoch Day34.78978328
Epoch Year2025
RAAN82.5327
Inclination3.2316
Eccentricity0.0065766
Argument of Perigee259.6627
Mean Anonmoly252.2488
Mean Motion0.98832829
Decay Rate-1.9E-06
L11 29155U 06018A 25034.78978328 -.00000190 00000+0 00000+0 0 9992
L22 29155 3.2316 82.5327 0065766 259.6627 252.2488 0.98832829 68456



Live tracking and technical data element details for EWS-G1 (GOES 13) (NORAD 29155). EWS-G1 (GOES 13) can be tracked NOW for your location showing map with azimuth and elevation plus other details from your city location.







IsCatalogInMostPopularTable: catalog: 29155, numindb: 400
Update: records affected: 1



GetName: 29155 EWS-G1 (GOES 13)

Hit Count: updated at: Thu, 15 May 2025 19:44:36 GMT